Hourly Weather Cairo

Today, 25 September, Friday

Time Temperature Precipitation Wind Pressure Humidity
00:00 +24°C° 0 mm 3 mps 756 mmHg 83%
01:00 +24°C° 0 mm 2 mps 756 mmHg 85%
02:00 +23°C° 0 mm 2 mps 755 mmHg 86%
03:00 +23°C° 0 mm 2 mps 755 mmHg 86%
04:00 +23°C° 0 mm 2 mps 755 mmHg 87%
05:00 +23°C° 0 mm 1 mps 755 mmHg 87%
06:00 +24°C° 0 mm 1 mps 755 mmHg 81%
07:00 +25°C° 0 mm 2 mps 755 mmHg 75%
08:00 +27°C° 0 mm 2 mps 755 mmHg 69%
09:00 +29°C° 0 mm 2 mps 755 mmHg 58%
10:00 +31°C° 0 mm 3 mps 755 mmHg 47%
11:00 +35°C° 0 mm 3 mps 755 mmHg 35%
12:00 +36°C° 0 mm 4 mps 754 mmHg 31%
13:00 +38°C° 0 mm 4 mps 754 mmHg 26%
14:00 +41°C° 0 mm 5 mps 753 mmHg 21%
15:00 +40°C° 0 mm 6 mps 753 mmHg 23%
16:00 +39°C° 0 mm 7 mps 753 mmHg 26%
17:00 +38°C° 0 mm 8 mps 753 mmHg 28%
18:00 +35°C° 0 mm 7 mps 753 mmHg 36%
19:00 +33°C° 0 mm 6 mps 754 mmHg 44%
20:00 +29°C° 0 mm 6 mps 754 mmHg 52%
21:00 +28°C° 0 mm 5 mps 754 mmHg 57%
22:00 +27°C° 0 mm 4 mps 754 mmHg 62%
23:00 +26°C° 0 mm 3 mps 755 mmHg 67%

Tomorrow, 26 September, Saturday

Time Temperature Precipitation Wind Pressure Humidity
00:00 +26°C° 0 mm 2 mps 754 mmHg 70%
01:00 +25°C° 0 mm 2 mps 754 mmHg 73%
02:00 +25°C° 0 mm 1 mps 753 mmHg 76%
03:00 +24°C° 0 mm 2 mps 753 mmHg 78%
04:00 +24°C° 0 mm 2 mps 753 mmHg 79%
05:00 +24°C° 0 mm 2 mps 754 mmHg 81%
06:00 +25°C° 0 mm 2 mps 754 mmHg 76%
07:00 +26°C° 0 mm 2 mps 754 mmHg 72%
08:00 +27°C° 0 mm 2 mps 754 mmHg 67%
09:00 +29°C° 0 mm 2 mps 754 mmHg 56%
10:00 +31°C° 0 mm 2 mps 754 mmHg 45%
11:00 +34°C° 0 mm 2 mps 754 mmHg 34%
12:00 +35°C° 0 mm 2 mps 754 mmHg 30%
13:00 +36°C° 0 mm 2 mps 753 mmHg 26%
14:00 +37°C° 0 mm 2 mps 752 mmHg 23%
15:00 +37°C° 0 mm 3 mps 752 mmHg 22%
16:00 +37°C° 0 mm 3 mps 752 mmHg 22%
17:00 +37°C° 0 mm 3 mps 752 mmHg 22%
18:00 +35°C° 0 mm 4 mps 753 mmHg 33%
19:00 +32°C° 0 mm 5 mps 753 mmHg 45%
20:00 +28°C° 0 mm 6 mps 754 mmHg 57%
21:00 +27°C° 0 mm 5 mps 754 mmHg 61%
22:00 +27°C° 0 mm 5 mps 754 mmHg 65%
23:00 +26°C° 0 mm 4 mps 755 mmHg 68%

Day after tomorrow, 27 September, Sunday

Time Temperature Precipitation Wind Pressure Humidity
00:00 +25°C° 0 mm 4 mps 755 mmHg 71%
01:00 +25°C° 0 mm 4 mps 754 mmHg 73%
02:00 +23°C° 0 mm 4 mps 754 mmHg 76%
03:00 +23°C° 0 mm 4 mps 755 mmHg 76%
04:00 +23°C° 0 mm 4 mps 755 mmHg 77%
05:00 +23°C° 0 mm 4 mps 755 mmHg 77%
06:00 +25°C° 0 mm 4 mps 755 mmHg 70%
07:00 +27°C° 0 mm 5 mps 755 mmHg 63%
08:00 +28°C° 0 mm 5 mps 755 mmHg 56%
09:00 +32°C° 0 mm 6 mps 755 mmHg 46%
10:00 +34°C° 0 mm 6 mps 755 mmHg 37%
11:00 +38°C° 0 mm 7 mps 755 mmHg 27%
12:00 +39°C° 0 mm 7 mps 755 mmHg 24%
13:00 +40°C° 0 mm 8 mps 754 mmHg 21%
14:00 +41°C° 0 mm 8 mps 754 mmHg 19%
15:00 +40°C° 0 mm 8 mps 754 mmHg 21%
16:00 +39°C° 0 mm 9 mps 754 mmHg 23%
17:00 +38°C° 0 mm 9 mps 754 mmHg 25%
18:00 +35°C° 0 mm 9 mps 755 mmHg 38%
19:00 +32°C° 0 mm 8 mps 755 mmHg 51%
20:00 +28°C° 0 mm 8 mps 756 mmHg 63%
21:00 +28°C° 0 mm 7 mps 756 mmHg 68%
22:00 +27°C° 0 mm 7 mps 756 mmHg 74%
23:00 +26°C° 0 mm 7 mps 756 mmHg 79%

28 September, Monday

Time Temperature Precipitation Wind Pressure Humidity
00:00 +26°C° 0 mm 6 mps 756 mmHg 80%
01:00 +26°C° 0 mm 6 mps 756 mmHg 81%
02:00 +25°C° 0 mm 5 mps 756 mmHg 82%
03:00 +25°C° 0 mm 5 mps 756 mmHg 83%
04:00 +25°C° 0 mm 5 mps 756 mmHg 84%
05:00 +25°C° 0 mm 5 mps 756 mmHg 84%
06:00 +26°C° 0 mm 6 mps 756 mmHg 78%
07:00 +28°C° 0 mm 6 mps 757 mmHg 72%
08:00 +29°C° 0 mm 7 mps 757 mmHg 66%
09:00 +33°C° 0 mm 7 mps 756 mmHg 54%
10:00 +37°C° 0 mm 8 mps 756 mmHg 42%
11:00 +40°C° 0 mm 8 mps 756 mmHg 30%
12:00 +43°C° 0 mm 9 mps 755 mmHg 25%
13:00 +44°C° 0 mm 10 mps 755 mmHg 20%
14:00 +47°C° 0 mm 10 mps 754 mmHg 15%
15:00 +44°C° 0 mm 10 mps 754 mmHg 17%
16:00 +43°C° 0 mm 10 mps 754 mmHg 19%
17:00 +42°C° 0 mm 9 mps 754 mmHg 21%
18:00 +38°C° 0 mm 9 mps 755 mmHg 31%
19:00 +34°C° 0 mm 8 mps 755 mmHg 42%
20:00 +30°C° 0 mm 7 mps 756 mmHg 53%
21:00 +29°C° 0 mm 6 mps 756 mmHg 61%
22:00 +28°C° 0 mm 6 mps 756 mmHg 69%
23:00 +27°C° 0 mm 5 mps 756 mmHg 77%

29 September, Tuesday

Time Temperature Precipitation Wind Pressure Humidity
00:00 +27°C° 0 mm 5 mps 756 mmHg 79%
01:00 +26°C° 0 mm 5 mps 755 mmHg 80%
02:00 +26°C° 0 mm 5 mps 755 mmHg 82%
03:00 +26°C° 0 mm 5 mps 755 mmHg 83%
04:00 +26°C° 0 mm 5 mps 755 mmHg 85%
05:00 +26°C° 0 mm 5 mps 755 mmHg 86%
06:00 +27°C° 0 mm 5 mps 755 mmHg 79%
07:00 +28°C° 0 mm 5 mps 756 mmHg 72%
08:00 +30°C° 0 mm 5 mps 756 mmHg 65%
09:00 +34°C° 0 mm 6 mps 755 mmHg 52%
10:00 +38°C° 0 mm 6 mps 755 mmHg 38%
11:00 +41°C° 0 mm 6 mps 754 mmHg 25%
12:00 +42°C° 0 mm 6 mps 754 mmHg 21%
13:00 +45°C° 0 mm 6 mps 753 mmHg 17%
14:00 +46°C° 0 mm 6 mps 752 mmHg 13%
15:00 +45°C° 0 mm 7 mps 752 mmHg 14%
16:00 +44°C° 0 mm 7 mps 752 mmHg 16%
17:00 +43°C° 0 mm 8 mps 752 mmHg 17%
18:00 +39°C° 0 mm 7 mps 752 mmHg 29%
19:00 +35°C° 0 mm 7 mps 753 mmHg 41%
20:00 +30°C° 0 mm 6 mps 753 mmHg 54%
21:00 +29°C° 0 mm 5 mps 753 mmHg 62%
22:00 +28°C° 0 mm 5 mps 753 mmHg 70%
23:00 +27°C° 0 mm 4 mps 753 mmHg 78%

30 September, Wednesday

Time Temperature Precipitation Wind Pressure Humidity
00:00 +26°C° 0 mm 4 mps 753 mmHg 81%
01:00 +26°C° 0 mm 3 mps 753 mmHg 84%
02:00 +25°C° 0 mm 3 mps 752 mmHg 86%
03:00 +25°C° 0 mm 3 mps 752 mmHg 87%
04:00 +25°C° 0 mm 3 mps 752 mmHg 88%
05:00 +25°C° 0 mm 3 mps 752 mmHg 88%
06:00 +26°C° 0 mm 3 mps 752 mmHg 83%
07:00 +27°C° 0 mm 4 mps 752 mmHg 77%
08:00 +28°C° 0 mm 4 mps 753 mmHg 71%
09:00 +32°C° 0 mm 4 mps 752 mmHg 57%
10:00 +35°C° 0 mm 4 mps 752 mmHg 44%
11:00 +38°C° 0 mm 4 mps 752 mmHg 30%
12:00 +40°C° 0 mm 4 mps 751 mmHg 25%
13:00 +42°C° 0 mm 4 mps 751 mmHg 20%
14:00 +43°C° 0 mm 4 mps 750 mmHg 15%
15:00 +42°C° 0 mm 6 mps 750 mmHg 21%
16:00 +40°C° 0 mm 7 mps 750 mmHg 27%
17:00 +39°C° 0 mm 9 mps 750 mmHg 33%
18:00 +35°C° 0 mm 8 mps 751 mmHg 44%
19:00 +32°C° 0 mm 7 mps 751 mmHg 55%
20:00 +28°C° 0 mm 7 mps 752 mmHg 66%
21:00 +27°C° 0 mm 6 mps 752 mmHg 71%
22:00 +26°C° 0 mm 5 mps 752 mmHg 75%
23:00 +25°C° 0 mm 4 mps 752 mmHg 80%
Show more